[[{"header":{"parameterUnit":"m.s-1","parameterCategory":1,"la1":30.2991,"la2":30.254,"lo1":-89.0895,"lo2":-89.0444,"dy":0.0017,"dx":0.0017,"nx":28,"ny":28,"refTime":"2025-04-29T21:00:00:Z","depth":0,"parameterNumber":2,"parameterNumberName":"U-component_of_WINDS"},"data":[0,0,0,0,0,0,0,0,0,0,0,0,0,0,0,0,0,0,0,0,0,0,0,0,0,0,0,0,0,0,0,0,0,0,0,0,0,0,0,0,0,0,0,0,0,0,0,0,0,0,0,0,0,0,0,0,0,0,-3.7613,-3.7614,0,-3.7689,-3.769,-3.769,-3.7675,-3.7674,-3.7672,-3.7671,-3.7746,-3.7749,-3.7753,0,0,0,0,0,0,0,0,0,0,0,0,0,-3.7454,-3.7457,-3.7613,-3.7614,-3.7615,-3.7689,-3.769,-3.7691,-3.7675,-3.7674,-3.7672,-3.767,-3.7745,-3.7749,-3.7753,0,0,0,0,0,0,0,0,0,0,0,0,0,-3.7526,-3.7458,-3.7612,-3.7616,-3.7617,-3.7688,-3.769,-3.7691,-3.7676,-3.7674,-3.7672,-3.767,-3.7744,-3.7749,-3.7754,-3.7825,0,0,-3.7769,-3.7771,0,0,0,0,0,0,0,0,-3.7522,-3.7531,-3.7615,-3.7616,-3.7617,-3.767,-3.7661,-3.7736,-3.7676,-3.7653,-3.7671,-3.7669,-3.7723,-3.7729,-3.7748,-3.7829,-3.7832,-3.7769,-3.7772,-3.7774,-3.7776,0,0,0,0,0,0,0,-3.7517,-3.7528,-3.7643,-3.7616,-3.7617,-3.7614,-3.7621,-3.7675,-3.7698,-3.7655,-3.7654,-3.7664,-3.7723,-3.7743,-3.7749,-3.7833,-3.7769,-3.7773,-3.7776,-3.7778,-3.7978,-3.7981,0,0,0,0,0,0,-3.7511,-3.7524,-3.764,-3.7645,-3.7563,-3.7618,-3.7627,-3.7655,-3.7698,-3.7702,-3.7665,-3.7663,-3.7736,-3.7744,-3.7752,-3.7839,-3.7774,-3.7779,-3.7782,-3.7976,-3.7979,-3.7981,0,0,0,0,0,0,-3.7507,-3.7521,-3.7637,-3.7584,-3.7599,-3.7623,-3.7655,-3.7658,-3.7678,-3.7706,-3.7709,-3.7682,-3.7734,-3.7745,-3.7808,-3.7841,-3.7781,-3.7785,-3.7973,-3.7977,-3.798,-3.8013,0,0,0,0,0,0,-3.7503,-3.752,-3.7547,-3.7585,-3.7602,-3.7692,-3.7657,-3.7661,-3.7687,-3.7684,-3.7722,-3.7726,-3.7734,-3.78,-3.7813,-3.7847,-3.7789,-3.797,-3.7975,-3.7979,-3.8009,-3.8017,-3.8024,0,0,0,0,0,-3.7497,-3.7553,-3.7549,-3.7563,-3.7636,-3.7693,-3.7703,-3.7711,-3.769,-3.7717,-3.7736,-3.7725,-3.7836,-3.7807,-3.782,-3.7857,-3.7968,-3.7974,-3.7979,-3.8005,-3.8015,-3.8024,0,0,0,0,0,0,-3.7516,-3.7557,-3.7554,-3.7623,-3.7655,-3.7691,-3.7725,-3.7721,-3.7759,-3.7755,-3.7763,-3.7771,-3.7835,-3.7853,-3.7819,-3.7929,-3.7899,-3.7907,-3.7915,-3.7924,-3.7932,-3.7925,-3.7793,0,0,0,0,0,-3.7529,-3.7573,-3.7606,-3.7664,-3.7681,-3.7701,-3.7726,-3.773,-3.7763,-3.7776,-3.7798,-3.783,-3.7873,-3.79,-3.794,-3.8013,-3.802,-3.8045,-3.8052,-3.8058,-3.8064,-3.8104,-3.8115,-3.7999,-3.7999,-3.7999,0,0,-3.7555,-3.7583,-3.7609,-3.7669,-3.7694,-3.7738,-3.7712,-3.776,-3.7792,-3.7783,-3.7843,-3.7862,-3.7898,-3.7966,-3.7997,-3.7982,-3.8099,-3.8065,-3.807,-3.8072,-3.8111,-3.8122,-3.8132,-3.8003,-3.8002,-3.8001,0,0,-3.7624,-3.765,-3.7701,-3.7728,-3.7767,-3.7781,-3.7794,-3.7831,-3.7843,-3.7904,-3.7898,-3.7938,-3.8011,-3.8037,-3.806,-3.8144,-3.8135,-3.8157,-3.8195,-3.8234,-3.8243,-3.8251,-3.828,-3.829,-3.8164,-3.8164,-3.8164,0,-3.765,-3.7717,-3.7728,-3.7777,-3.7803,-3.7799,-3.7851,-3.7876,-3.7927,-3.7945,-3.7929,-3.8021,-3.8046,-3.812,-3.814,-3.816,-3.8174,-3.8151,-3.8241,-3.825,-3.8257,-3.8285,-3.8296,-3.8166,-3.8166,-3.8165,-3.8165,0,-3.7747,-3.7794,-3.7831,-3.7881,-3.7912,-3.7963,-3.7981,-3.8011,-3.8014,-3.8029,-3.8093,-3.8123,-3.8169,-3.8188,-3.819,-3.8263,-3.8253,-3.8239,-3.8209,-3.827,-3.8296,-3.8307,-3.8169,-3.8168,-3.8168,-3.8167,0,0,-3.7826,-3.7885,-3.7897,-3.7921,-3.7966,-3.8002,-3.8053,-3.81,-3.8126,-3.8162,-3.8204,-3.8268,-3.8257,-3.8283,-3.8289,-3.8323,-3.8387,-3.8305,-3.8306,-3.8318,-3.8469,-3.8477,-3.8489,-3.8383,-3.8386,-3.8387,-3.8465,0,-3.7898,-3.7988,-3.8001,-3.808,-3.8124,-3.8123,-3.8167,-3.82,-3.8217,-3.8256,-3.8275,-3.8319,-3.8301,-3.8317,-3.8352,-3.8372,-3.8417,-3.8367,-3.8422,-3.8423,-3.841,-3.8502,-3.8511,-3.8582,-3.8475,-3.8477,-3.8478,0,-3.7992,-3.8033,-3.8117,-3.8158,-3.8176,-3.8216,-3.8261,-3.83,-3.8337,-3.8347,-3.8379,-3.8381,-3.8434,-3.8405,-3.8478,-3.8443,-3.8468,-3.8481,-3.8484,-3.8487,-3.8452,-3.8506,-3.8606,-3.8615,-3.8495,-3.8493,-3.8492,0,-3.804,-3.8115,-3.8176,-3.8196,-3.8245,-3.8273,-3.8295,-3.8331,-3.8359,-3.8399,-3.8418,-3.8463,-3.8487,-3.8523,-3.8538,-3.8515,-3.861,-3.8581,-3.8619,-3.8619,-3.8636,-3.8634,-3.8739,-3.8656,-3.8656,-3.8656,-3.8655,0,-3.8117,-3.8168,-3.8198,-3.8234,-3.8292,-3.8307,-3.8364,-3.8385,-3.8418,-3.8459,-3.8461,-3.8499,-3.8518,-3.8559,-3.8572,-3.863,-3.8642,-3.8651,-3.8653,-3.8649,-3.8648,-3.8662,-3.8657,-3.8659,-3.8658,-3.8657,-3.8657,0,-3.8177,-3.82,-3.8265,-3.8308,-3.832,-3.8361,-3.8397,-3.8433,-3.8452,-3.8503,-3.8516,-3.8545,-3.8594,-3.8614,-3.8673,-3.8682,-3.8749,-3.8748,-3.8736,-3.8736,-3.8772,-3.8767,-3.8887,-3.8903,-3.8812,-3.8813,-3.8814,0,-3.8224,-3.8263,-3.8311,-3.8339,-3.8363,-3.8408,-3.8437,-3.8455,-3.8486,-3.8534,-3.8564,-3.8613,-3.8653,-3.8732,-3.8758,-3.8804,-3.8803,-3.8842,-3.881,-3.8805,-3.8802,-3.8798,-3.8802,-3.8847,-3.8848,-3.8849,-3.8849,0,-3.8303,-3.8313,-3.8356,-3.8403,-3.8439,-3.8477,-3.8513,-3.8536,-3.856,-3.8595,-3.8646,-3.8677,-3.874,-3.8788,-3.8837,-3.8859,-3.8858,-3.886,-3.8871,-3.8866,-3.8856,-3.886,-3.875,-3.8856,-3.8855,-3.8855,-3.8855,-3.8854,-3.8357,-3.8392,-3.8432,-3.848,-3.851,-3.8546,-3.8582,-3.8606,-3.8649,-3.8701,-3.871,-3.8764,-3.8803,-3.8868,-3.8893,-3.8936,-3.8926,-3.8942,-3.8945,-3.8948,-3.895,-3.8852,-3.8945,-3.8945,-3.8945,-3.8945,-3.8945,0,-3.8435,-3.8461,-3.8506,-3.8558,-3.8596,-3.8595,-3.8637,-3.8668,-3.8716,-3.8753,-3.8794,-3.8853,-3.8901,-3.8933,-3.8981,-3.901,-3.9011,-3.9022,-3.9018,-3.9023,-3.8957,-3.8942,-3.902,-3.902,-3.902,-3.902,-3.902,-3.902,-3.848,-3.8539,-3.8555,-3.863,-3.8656,-3.871,-3.8734,-3.8767,-3.8797,-3.8863,-3.8903,-3.8924,-3.8959,-3.9011,-3.9056,-3.9064,-3.9081,-3.9093,-3.9099,-3.9036,-3.9028,-3.902,-3.9006,-3.9097,-3.9097,-3.9162,-3.9163,-3.9163]},{"header":{"parameterUnit":"m.s-1","parameterCategory":1,"la1":30.2991,"la2":30.254,"lo1":-89.0895,"lo2":-89.0444,"dy":0.0017,"dx":0.0017,"nx":28,"ny":28,"refTime":"2025-04-29T21:00:00:Z","depth":0,"parameterNumber":3,"parameterNumberName":"V-component_of_WINDS"},"data":[0,0,0,0,0,0,0,0,0,0,0,0,0,0,0,0,0,0,0,0,0,0,0,0,0,0,0,0,0,0,0,0,0,0,0,0,0,0,0,0,0,0,0,0,0,0,0,0,0,0,0,0,0,0,0,0,0,0,4.2317,4.2317,0,4.233,4.233,4.233,4.236,4.236,4.2361,4.2362,4.2369,4.2369,4.2369,0,0,0,0,0,0,0,0,0,0,0,0,0,4.2316,4.2316,4.2317,4.2317,4.2318,4.233,4.233,4.233,4.236,4.236,4.2361,4.2362,4.2369,4.2369,4.2369,0,0,0,0,0,0,0,0,0,0,0,0,0,4.2321,4.2316,4.2317,4.2334,4.2336,4.233,4.233,4.233,4.2359,4.236,4.2361,4.2362,4.237,4.2369,4.2368,4.2346,0,0,4.2367,4.2366,0,0,0,0,0,0,0,0,4.2321,4.2321,4.2331,4.2333,4.2335,4.2344,4.2332,4.2335,4.2359,4.235,4.2362,4.2363,4.236,4.236,4.236,4.2346,4.2346,4.2367,4.2366,4.2366,4.2366,0,0,0,0,0,0,0,4.2321,4.2321,4.2322,4.2331,4.2333,4.234,4.2342,4.2333,4.2349,4.2351,4.2353,4.2355,4.2361,4.2361,4.2361,4.2347,4.2367,4.2366,4.2366,4.2366,4.2316,4.2315,0,0,0,0,0,0,4.2318,4.232,4.2322,4.2322,4.233,4.2339,4.2341,4.234,4.235,4.2352,4.2354,4.2356,4.2361,4.2361,4.2361,4.2336,4.2366,4.2366,4.2365,4.2317,4.2316,4.2315,0,0,0,0,0,0,4.2318,4.2318,4.2321,4.2322,4.2323,4.2338,4.2337,4.234,4.234,4.2352,4.2354,4.2351,4.2362,4.2362,4.235,4.2337,4.2365,4.2365,4.2318,4.2316,4.2315,4.2285,0,0,0,0,0,0,4.2318,4.2318,4.231,4.2322,4.2323,4.2311,4.2336,4.2339,4.2339,4.2342,4.235,4.2352,4.2363,4.2351,4.2349,4.2336,4.2364,4.2319,4.2317,4.2316,4.2287,4.2283,4.2279,0,0,0,0,0,4.2318,4.23,4.231,4.2309,4.2314,4.231,4.231,4.2325,4.2338,4.233,4.2338,4.2351,4.2338,4.2349,4.2348,4.2335,4.232,4.2318,4.2316,4.2289,4.2284,4.2279,0,0,0,0,0,0,4.2284,4.2302,4.2312,4.2298,4.2303,4.2315,4.2305,4.2318,4.2318,4.2321,4.2337,4.2339,4.2325,4.2328,4.234,4.2314,4.2332,4.2329,4.2312,4.2307,4.2303,4.2302,4.2364,0,0,0,0,0,4.2275,4.2272,4.2287,4.2273,4.2275,4.229,4.2288,4.23,4.2304,4.2306,4.2313,4.2316,4.2313,4.231,4.2307,4.2288,4.229,4.2278,4.2274,4.2271,4.2268,4.2259,4.2254,4.2307,4.2307,4.2307,0,0,4.2256,4.2266,4.2262,4.2266,4.2271,4.2267,4.2291,4.2285,4.2282,4.2304,4.2294,4.23,4.2304,4.2289,4.2282,4.2292,4.2254,4.2268,4.2265,4.2264,4.2257,4.2252,4.2247,4.2306,4.2306,4.2306,0,0,4.222,4.2226,4.2216,4.2221,4.2229,4.2239,4.2237,4.2248,4.2253,4.2243,4.2261,4.2257,4.225,4.2253,4.2254,4.222,4.2233,4.2219,4.2197,4.2188,4.2184,4.218,4.2169,4.2164,4.2216,4.2216,4.2216,0,4.2195,4.219,4.2208,4.2202,4.2203,4.2226,4.2215,4.2219,4.2224,4.2224,4.2235,4.2229,4.2233,4.222,4.2212,4.2212,4.2209,4.2218,4.2183,4.218,4.2177,4.2166,4.2161,4.2215,4.2215,4.2215,4.2215,0,4.216,4.2156,4.2146,4.2154,4.2154,4.2145,4.2161,4.2159,4.2171,4.218,4.217,4.2177,4.2177,4.2174,4.2184,4.2162,4.2168,4.218,4.2199,4.217,4.216,4.2156,4.2212,4.2213,4.2213,4.2214,0,0,4.2101,4.212,4.2116,4.2121,4.2132,4.2129,4.2121,4.2123,4.2121,4.2125,4.2118,4.2114,4.2126,4.2127,4.2138,4.213,4.2104,4.2144,4.2144,4.2136,4.2081,4.2071,4.2066,4.2113,4.2112,4.2112,4.2081,0,4.2067,4.2057,4.2073,4.2059,4.2056,4.2078,4.2072,4.2077,4.2086,4.2084,4.2093,4.209,4.2106,4.2107,4.21,4.2109,4.2093,4.2111,4.2107,4.2106,4.2105,4.2061,4.2051,4.2021,4.2077,4.2076,4.2076,0,4.2026,4.203,4.2016,4.2029,4.2029,4.2023,4.2026,4.2024,4.2031,4.2038,4.204,4.2054,4.2046,4.2065,4.2055,4.2067,4.2066,4.207,4.2069,4.2069,4.2089,4.206,4.2012,4.2007,4.207,4.207,4.2071,0,4.1986,4.1987,4.1979,4.1982,4.1997,4.1993,4.1998,4.2007,4.2007,4.201,4.201,4.2011,4.2012,4.2012,4.2026,4.2038,4.2015,4.2034,4.202,4.2019,4.2013,4.2013,4.1965,4.2013,4.2013,4.2013,4.2013,0,4.1946,4.1937,4.1962,4.1956,4.1946,4.1965,4.1955,4.1962,4.197,4.1966,4.1985,4.1981,4.1999,4.1997,4.2007,4.1998,4.1998,4.2003,4.2005,4.2001,4.2,4.2,4.2003,4.2012,4.2012,4.2012,4.2012,0,4.1899,4.1916,4.1908,4.1924,4.1928,4.192,4.1933,4.1929,4.1939,4.1934,4.1934,4.195,4.1949,4.1962,4.1963,4.197,4.1956,4.1962,4.1954,4.1956,4.1941,4.1943,4.1891,4.1885,4.1936,4.1936,4.1935,0,4.1873,4.1867,4.1883,4.1883,4.1888,4.1887,4.1888,4.1907,4.1907,4.1916,4.191,4.1911,4.1912,4.1909,4.1919,4.192,4.1927,4.1908,4.1927,4.1923,4.1927,4.1927,4.1927,4.1904,4.1904,4.1903,4.1903,0,4.1826,4.1834,4.1836,4.1841,4.1843,4.1847,4.1852,4.1851,4.1871,4.187,4.187,4.1871,4.1873,4.1873,4.1877,4.1881,4.1895,4.1897,4.1894,4.1889,4.1885,4.1888,4.1944,4.1898,4.1899,4.1899,4.1899,4.1899,4.1789,4.1784,4.1795,4.1797,4.1803,4.1808,4.1806,4.1817,4.1817,4.1821,4.1832,4.183,4.1838,4.1844,4.1848,4.1846,4.1855,4.185,4.1849,4.1847,4.1845,4.1886,4.1846,4.1847,4.1847,4.1847,4.1847,0,4.1742,4.1751,4.1752,4.176,4.1762,4.1777,4.1784,4.1783,4.1782,4.1789,4.1791,4.1791,4.1791,4.1803,4.1805,4.1801,4.1808,4.1801,4.1801,4.1803,4.1837,4.184,4.1796,4.1796,4.1796,4.1796,4.1796,4.1796,4.1718,4.1712,4.1723,4.172,4.1728,4.1728,4.1731,4.1735,4.1741,4.1741,4.1742,4.1751,4.1759,4.1762,4.1764,4.1767,4.1767,4.1758,4.1763,4.1795,4.18,4.1805,4.1807,4.1758,4.1758,4.1729,4.1729,4.1729]}]]